Find OneWeb SL0198

NORAD ID: 48216 Int'l Des: 2021-031 Owner: ONEWEBN Country: UK Constellation: oneweb operational
LEOCIRCULARPOLARONEWEB_TYPE

实时位置

正在加载3D地球...

关于 OneWeb SL0198

正在加载描述...

即将过境

Passes for default location (London). Set your location on the main map for personalized predictions.

高度历史

Loading altitude history...

两行轨道根数

1 48216U 21031G 26124.99179806 .00000037 00000-0 64276-4 0 9991
2 48216 87.8916 298.3348 0001326 86.4326 273.6956 13.14503487242811
Epoch: May 4, 2026 • Age: 9 hours

当前状态

高度 1211.2 km
速度 7.25 km/s
星下点 41.87°N, 60.35°W
发射日期 Apr 25, 2021
运行时间 5 years
类型 internet

技术详情

分类 Payload
质量 148.00 kg
干质量 140.00 kg
总质量 148.00 kg
长度 1.30 m
直径 1.00 m
跨度 5.00 m
形状 Trapezoid+2 pan
制造商 ONEWUS
平台类型 ARROW
阶段状态 In Orbit
所有者/国家 ONEWEBN/UK

Most Searched